Time,TemperatureF,DewpointF,PressureIn,WindDirection,WindDirectionDegrees,WindSpeedMPH,WindSpeedGustMPH,Humidity,HourlyPrecipIn,Conditions,Clouds,dailyrainin,SoftwareType,DateUTC
2013-05-26 00:01:00,60.3,27.9,0.00,NE,41,0.0,2.2,29,0.00,,---,0.00,VWS V13.01,2013-05-26 04:01:00,
2013-05-26 00:03:00,60.1,27.7,0.00,NNE,22,0.0,2.2,29,0.00,,---,0.00,VWS V13.01,2013-05-26 04:03:00,
2013-05-26 00:08:00,60.1,28.6,0.00,North,6,0.0,2.2,30,0.00,,---,0.00,VWS V13.01,2013-05-26 04:08:00,
2013-05-26 00:13:00,59.9,28.4,0.00,NNE,19,0.0,3.6,30,0.00,,---,0.00,VWS V13.01,2013-05-26 04:13:00,
2013-05-26 00:18:00,59.5,28.9,0.00,NNE,31,0.0,3.6,31,0.00,,---,0.00,VWS V13.01,2013-05-26 04:18:00,
2013-05-26 00:23:00,59.4,27.9,0.00,NNW,333,0.0,0.0,30,0.00,,---,0.00,VWS V13.01,2013-05-26 04:23:00,
2013-05-26 00:28:00,59.4,29.5,0.00,North,0,2.7,2.7,32,0.00,,---,0.00,VWS V13.01,2013-05-26 04:28:00,
2013-05-26 00:33:00,59.2,30.1,0.00,NNE,20,0.0,4.9,33,0.00,,---,0.00,VWS V13.01,2013-05-26 04:33:00,
2013-05-26 00:38:00,59.0,30.0,0.00,NNW,340,0.0,4.9,33,0.00,,---,0.00,VWS V13.01,2013-05-26 04:38:00,
2013-05-26 00:43:00,59.0,29.2,0.00,North,8,0.0,3.1,32,0.00,,---,0.00,VWS V13.01,2013-05-26 04:43:00,
2013-05-26 00:48:00,59.0,30.0,0.00,NNE,31,2.7,3.6,33,0.00,,---,0.00,VWS V13.01,2013-05-26 04:48:00,
2013-05-26 00:53:00,59.0,30.0,0.00,NNW,340,0.0,3.6,33,0.00,,---,0.00,VWS V13.01,2013-05-26 04:53:00,
2013-05-26 00:58:00,58.8,30.5,0.00,NNW,337,3.1,3.6,34,0.00,,---,0.00,VWS V13.01,2013-05-26 04:58:00,
2013-05-26 01:03:00,58.8,31.2,0.00,NNW,346,2.7,4.9,35,0.00,,---,0.00,VWS V13.01,2013-05-26 05:03:00,
2013-05-26 01:08:00,58.8,31.2,0.00,NNW,346,0.0,4.9,35,0.00,,---,0.00,VWS V13.01,2013-05-26 05:08:00,
2013-05-26 01:13:00,58.6,31.1,0.00,NNW,346,0.0,4.9,35,0.00,,---,0.00,VWS V13.01,2013-05-26 05:13:00,
2013-05-26 01:18:00,58.5,30.9,0.00,NNW,346,0.0,4.9,35,0.00,,---,0.00,VWS V13.01,2013-05-26 05:18:00,
2013-05-26 01:23:00,58.5,31.6,0.00,NNW,346,0.0,0.0,36,0.00,,---,0.00,VWS V13.01,2013-05-26 05:23:00,
2013-05-26 01:28:00,58.5,31.6,0.00,NNE,18,0.0,0.0,36,0.00,,---,0.00,VWS V13.01,2013-05-26 05:28:00,
2013-05-26 01:33:00,58.3,31.5,0.00,North,357,0.0,2.2,36,0.00,,---,0.00,VWS V13.01,2013-05-26 05:33:00,
2013-05-26 01:38:00,58.3,31.5,0.00,North,357,0.0,2.2,36,0.00,,---,0.00,VWS V13.01,2013-05-26 05:38:00,
2013-05-26 01:43:00,58.1,31.3,0.00,North,357,0.0,0.0,36,0.00,,---,0.00,VWS V13.01,2013-05-26 05:43:00,
2013-05-26 01:48:00,57.9,31.1,0.00,North,357,0.0,0.0,36,0.00,,---,0.00,VWS V13.01,2013-05-26 05:48:00,
2013-05-26 01:53:00,57.7,31.7,0.00,North,357,0.0,0.0,37,0.00,,---,0.00,VWS V13.01,2013-05-26 05:53:00,
2013-05-26 01:58:00,57.6,32.2,0.00,North,357,0.0,0.0,38,0.00,,---,0.00,VWS V13.01,2013-05-26 05:58:00,
2013-05-26 02:03:00,57.4,32.0,0.00,North,357,0.0,0.0,38,0.00,,---,0.00,VWS V13.01,2013-05-26 06:03:00,
2013-05-26 02:08:00,57.0,32.3,0.00,North,357,0.0,0.0,39,0.00,,---,0.00,VWS V13.01,2013-05-26 06:08:00,
2013-05-26 02:13:00,56.8,32.2,0.00,North,357,0.0,0.0,39,0.00,,---,0.00,VWS V13.01,2013-05-26 06:13:00,
2013-05-26 02:18:00,56.7,32.6,0.00,North,357,0.0,0.0,40,0.00,,---,0.00,VWS V13.01,2013-05-26 06:18:00,
2013-05-26 02:23:00,56.3,32.9,0.00,North,357,0.0,0.0,41,0.00,,---,0.00,VWS V13.01,2013-05-26 06:23:00,
2013-05-26 02:28:00,55.8,32.4,0.00,North,357,0.0,0.0,41,0.00,,---,0.00,VWS V13.01,2013-05-26 06:28:00,
2013-05-26 02:33:00,55.4,32.1,0.00,North,357,0.0,0.0,41,0.00,,---,0.00,VWS V13.01,2013-05-26 06:33:00,
2013-05-26 02:38:00,55.0,33.0,0.00,North,357,0.0,0.0,43,0.00,,---,0.00,VWS V13.01,2013-05-26 06:38:00,
2013-05-26 02:43:00,54.5,33.0,0.00,North,357,0.0,0.0,44,0.00,,---,0.00,VWS V13.01,2013-05-26 06:43:00,
2013-05-26 02:48:00,54.1,33.3,0.00,North,357,0.0,0.0,45,0.00,,---,0.00,VWS V13.01,2013-05-26 06:48:00,
2013-05-26 02:53:00,54.0,33.1,0.00,North,357,0.0,0.0,45,0.00,,---,0.00,VWS V13.01,2013-05-26 06:53:00,
2013-05-26 02:58:00,53.6,33.3,0.00,North,357,0.0,0.0,46,0.00,,---,0.00,VWS V13.01,2013-05-26 06:58:00,
2013-05-26 03:03:00,53.2,33.5,0.00,North,357,0.0,0.0,47,0.00,,---,0.00,VWS V13.01,2013-05-26 07:03:00,
2013-05-26 03:08:00,52.9,33.7,0.00,North,357,0.0,0.0,48,0.00,,---,0.00,VWS V13.01,2013-05-26 07:08:00,
2013-05-26 03:13:00,52.5,33.9,0.00,North,357,0.0,0.0,49,0.00,,---,0.00,VWS V13.01,2013-05-26 07:13:00,
2013-05-26 03:18:00,52.2,33.6,0.00,North,357,0.0,0.0,49,0.00,,---,0.00,VWS V13.01,2013-05-26 07:18:00,
2013-05-26 03:23:00,52.0,33.9,0.00,North,357,0.0,0.0,50,0.00,,---,0.00,VWS V13.01,2013-05-26 07:23:00,
2013-05-26 03:28:00,51.8,34.3,0.00,North,357,0.0,0.0,51,0.00,,---,0.00,VWS V13.01,2013-05-26 07:28:00,
2013-05-26 03:33:00,51.6,34.6,0.00,North,357,0.0,0.0,52,0.00,,---,0.00,VWS V13.01,2013-05-26 07:33:00,
2013-05-26 03:38:00,51.6,35.1,0.00,North,357,0.0,0.0,53,0.00,,---,0.00,VWS V13.01,2013-05-26 07:38:00,
2013-05-26 03:43:00,51.4,35.4,0.00,North,357,0.0,0.0,54,0.00,,---,0.00,VWS V13.01,2013-05-26 07:43:00,
2013-05-26 03:48:00,51.3,35.7,0.00,North,357,0.0,0.0,55,0.00,,---,0.00,VWS V13.01,2013-05-26 07:48:00,
2013-05-26 03:53:00,51.3,35.7,0.00,North,357,0.0,0.0,55,0.00,,---,0.00,VWS V13.01,2013-05-26 07:53:00,
2013-05-26 03:58:00,51.3,36.1,0.00,North,357,0.0,0.0,56,0.00,,---,0.00,VWS V13.01,2013-05-26 07:58:00,
2013-05-26 04:03:00,51.3,36.6,0.00,North,357,0.0,0.0,57,0.00,,---,0.00,VWS V13.01,2013-05-26 08:03:00,
2013-05-26 04:08:00,51.3,36.6,0.00,North,357,0.0,0.0,57,0.00,,---,0.00,VWS V13.01,2013-05-26 08:08:00,
2013-05-26 04:13:00,51.1,36.4,0.00,North,357,0.0,0.0,57,0.00,,---,0.00,VWS V13.01,2013-05-26 08:13:00,
2013-05-26 04:18:00,50.9,36.7,0.00,North,357,0.0,0.0,58,0.00,,---,0.00,VWS V13.01,2013-05-26 08:18:00,
2013-05-26 04:23:00,50.9,36.7,0.00,North,357,0.0,0.0,58,0.00,,---,0.00,VWS V13.01,2013-05-26 08:23:00,
2013-05-26 04:28:00,50.7,36.9,0.00,North,357,0.0,0.0,59,0.00,,---,0.00,VWS V13.01,2013-05-26 08:28:00,
2013-05-26 04:33:00,50.7,36.9,0.00,North,357,0.0,0.0,59,0.00,,---,0.00,VWS V13.01,2013-05-26 08:33:00,
2013-05-26 04:38:00,50.5,37.2,0.00,North,357,0.0,0.0,60,0.00,,---,0.00,VWS V13.01,2013-05-26 08:38:00,
2013-05-26 04:43:00,50.5,37.6,0.00,North,357,0.0,0.0,61,0.00,,---,0.00,VWS V13.01,2013-05-26 08:43:00,
2013-05-26 04:48:00,50.4,37.8,0.00,North,357,0.0,0.0,62,0.00,,---,0.00,VWS V13.01,2013-05-26 08:48:00,
2013-05-26 04:53:00,50.5,38.0,0.00,North,357,0.0,0.0,62,0.00,,---,0.00,VWS V13.01,2013-05-26 08:53:00,
2013-05-26 04:58:00,50.4,37.8,0.00,North,357,0.0,0.0,62,0.00,,---,0.00,VWS V13.01,2013-05-26 08:58:00,
2013-05-26 05:03:00,50.4,37.8,0.00,North,357,0.0,0.0,62,0.00,,---,0.00,VWS V13.01,2013-05-26 09:03:00,
2013-05-26 05:08:00,50.4,37.8,0.00,North,357,0.0,0.0,62,0.00,,---,0.00,VWS V13.01,2013-05-26 09:08:00,
2013-05-26 05:13:00,50.4,38.3,0.00,North,357,0.0,0.0,63,0.00,,---,0.00,VWS V13.01,2013-05-26 09:13:00,
2013-05-26 05:18:00,50.5,38.4,0.00,North,357,0.0,0.0,63,0.00,,---,0.00,VWS V13.01,2013-05-26 09:18:00,
2013-05-26 05:23:00,50.7,39.0,0.00,North,357,0.0,0.0,64,0.00,,---,0.00,VWS V13.01,2013-05-26 09:23:00,
2013-05-26 05:28:00,50.7,39.0,0.00,North,357,0.0,0.0,64,0.00,,---,0.00,VWS V13.01,2013-05-26 09:28:00,
2013-05-26 05:33:00,50.7,39.0,0.00,North,357,0.0,0.0,64,0.00,,---,0.00,VWS V13.01,2013-05-26 09:33:00,
2013-05-26 05:38:00,50.9,39.2,0.00,North,357,0.0,0.0,64,0.00,,---,0.00,VWS V13.01,2013-05-26 09:38:00,
2013-05-26 05:42:00,50.9,39.2,0.00,North,357,0.0,0.0,64,0.00,,---,0.00,VWS V13.01,2013-05-26 09:42:00,
2013-05-26 05:47:00,50.9,39.6,0.00,North,357,0.0,0.0,65,0.00,,---,0.00,VWS V13.01,2013-05-26 09:47:00,
2013-05-26 05:52:00,51.1,39.7,0.00,North,357,0.0,0.0,65,0.00,,---,0.00,VWS V13.01,2013-05-26 09:52:00,
2013-05-26 05:57:00,50.9,39.6,0.00,North,357,0.0,0.0,65,0.00,,---,0.00,VWS V13.01,2013-05-26 09:57:00,
2013-05-26 06:02:00,50.9,40.0,0.00,North,357,0.0,0.0,66,0.00,,---,0.00,VWS V13.01,2013-05-26 10:02:00,
2013-05-26 06:07:00,50.9,40.0,0.00,North,357,0.0,0.0,66,0.00,,---,0.00,VWS V13.01,2013-05-26 10:07:00,
2013-05-26 06:12:00,50.9,40.0,0.00,North,357,0.0,0.0,66,0.00,,---,0.00,VWS V13.01,2013-05-26 10:12:00,
2013-05-26 06:18:00,50.9,39.6,0.00,North,357,0.0,0.0,65,0.00,,---,0.00,VWS V13.01,2013-05-26 10:18:00,
2013-05-26 06:23:00,50.9,40.0,0.00,North,357,0.0,0.0,66,0.00,,---,0.00,VWS V13.01,2013-05-26 10:23:00,
2013-05-26 06:28:00,50.9,40.0,0.00,North,357,0.0,0.0,66,0.00,,---,0.00,VWS V13.01,2013-05-26 10:28:00,
2013-05-26 06:32:00,51.1,40.5,0.00,North,357,0.0,0.0,67,0.00,,---,0.00,VWS V13.01,2013-05-26 10:32:00,
2013-05-26 06:38:00,51.1,40.9,0.00,North,357,0.0,0.0,68,0.00,,---,0.00,VWS V13.01,2013-05-26 10:38:00,
2013-05-26 06:43:00,51.3,41.1,0.00,North,357,0.0,0.0,68,0.00,,---,0.00,VWS V13.01,2013-05-26 10:43:00,
2013-05-26 06:48:00,51.3,41.1,0.00,North,357,0.0,0.0,68,0.00,,---,0.00,VWS V13.01,2013-05-26 10:48:00,
2013-05-26 06:53:00,51.4,41.2,0.00,North,357,0.0,0.0,68,0.00,,---,0.00,VWS V13.01,2013-05-26 10:53:00,
2013-05-26 06:58:00,51.6,41.4,0.00,North,357,0.0,0.0,68,0.00,,---,0.00,VWS V13.01,2013-05-26 10:58:00,
2013-05-26 07:03:00,51.8,41.6,0.00,North,357,0.0,0.0,68,0.00,,---,0.00,VWS V13.01,2013-05-26 11:03:00,
2013-05-26 07:08:00,52.0,41.8,0.00,North,357,0.0,0.0,68,0.00,,---,0.00,VWS V13.01,2013-05-26 11:08:00,
2013-05-26 07:13:00,52.2,42.3,0.00,North,357,0.0,0.0,69,0.00,,---,0.00,VWS V13.01,2013-05-26 11:13:00,
2013-05-26 07:18:00,52.5,42.7,0.00,North,357,0.0,0.0,69,0.00,,---,0.00,VWS V13.01,2013-05-26 11:18:00,
2013-05-26 07:23:00,52.9,42.6,0.00,North,357,0.0,0.0,68,0.00,,---,0.00,VWS V13.01,2013-05-26 11:23:00,
2013-05-26 07:28:00,53.1,42.8,0.00,North,357,0.0,0.0,68,0.00,,---,0.00,VWS V13.01,2013-05-26 11:28:00,
2013-05-26 07:33:00,53.4,43.1,0.00,North,357,0.0,0.0,68,0.00,,---,0.00,VWS V13.01,2013-05-26 11:33:00,
2013-05-26 07:38:00,53.6,43.3,0.00,North,357,0.0,0.0,68,0.00,,---,0.00,VWS V13.01,2013-05-26 11:38:00,
2013-05-26 07:43:00,54.0,43.7,0.00,North,0,0.0,0.0,68,0.00,,---,0.00,VWS V13.01,2013-05-26 11:43:00,
2013-05-26 07:48:00,54.3,44.0,0.00,North,0,0.0,0.0,68,0.00,,---,0.00,VWS V13.01,2013-05-26 11:48:00,
2013-05-26 07:53:00,54.3,44.0,0.00,North,0,0.0,0.0,68,0.00,,---,0.00,VWS V13.01,2013-05-26 11:53:00,
2013-05-26 07:58:00,54.5,44.2,0.00,North,0,0.0,0.0,68,0.00,,---,0.00,VWS V13.01,2013-05-26 11:58:00,
2013-05-26 08:03:00,54.7,44.3,0.00,North,0,0.0,0.0,68,0.00,,---,0.00,VWS V13.01,2013-05-26 12:03:00,
2013-05-26 08:08:00,54.9,44.5,0.00,North,0,0.0,0.0,68,0.00,,---,0.00,VWS V13.01,2013-05-26 12:08:00,
2013-05-26 08:13:00,55.2,44.5,0.00,North,0,0.0,0.0,67,0.00,,---,0.00,VWS V13.01,2013-05-26 12:13:00,
2013-05-26 08:18:00,55.6,44.8,0.00,North,0,0.0,0.0,67,0.00,,---,0.00,VWS V13.01,2013-05-26 12:18:00,
2013-05-26 08:23:00,55.9,45.2,0.00,North,0,0.0,0.0,67,0.00,,---,0.00,VWS V13.01,2013-05-26 12:23:00,
2013-05-26 08:28:00,56.3,45.5,0.00,North,0,0.0,0.0,67,0.00,,---,0.00,VWS V13.01,2013-05-26 12:28:00,
2013-05-26 08:33:00,56.8,46.0,0.00,North,0,0.0,0.0,67,0.00,,---,0.00,VWS V13.01,2013-05-26 12:33:00,
2013-05-26 08:38:00,57.2,46.0,0.00,North,0,0.0,0.0,66,0.00,,---,0.00,VWS V13.01,2013-05-26 12:38:00,
2013-05-26 08:43:00,57.7,46.1,0.00,North,0,0.0,0.0,65,0.00,,---,0.00,VWS V13.01,2013-05-26 12:43:00,
2013-05-26 08:48:00,58.1,46.4,0.00,North,0,0.0,0.0,65,0.00,,---,0.00,VWS V13.01,2013-05-26 12:48:00,
2013-05-26 08:53:00,58.5,45.5,0.00,ESE,111,0.0,0.0,62,0.00,,---,0.00,VWS V13.01,2013-05-26 12:53:00,
2013-05-26 08:58:00,58.8,45.0,0.00,ESE,111,0.0,0.0,60,0.00,,---,0.00,VWS V13.01,2013-05-26 12:58:00,
2013-05-26 09:03:00,59.0,42.9,0.00,ESE,105,0.0,3.6,55,0.00,,---,0.00,VWS V13.01,2013-05-26 13:03:00,
2013-05-26 09:08:00,59.2,43.0,0.00,East,100,0.0,3.6,55,0.00,,---,0.00,VWS V13.01,2013-05-26 13:08:00,
2013-05-26 09:13:00,59.4,43.7,0.00,West,268,0.0,3.6,56,0.00,,---,0.00,VWS V13.01,2013-05-26 13:13:00,
2013-05-26 09:18:00,59.5,42.4,0.00,SW,217,0.0,3.6,53,0.00,,---,0.00,VWS V13.01,2013-05-26 13:18:00,
2013-05-26 09:23:00,59.9,43.7,0.00,SW,231,0.0,0.0,55,0.00,,---,0.00,VWS V13.01,2013-05-26 13:23:00,
2013-05-26 09:28:00,60.1,42.9,0.00,South,187,0.0,0.0,53,0.00,,---,0.00,VWS V13.01,2013-05-26 13:28:00,
2013-05-26 09:33:00,60.1,44.3,0.00,South,176,0.0,0.0,56,0.00,,---,0.00,VWS V13.01,2013-05-26 13:33:00,
2013-05-26 09:38:00,60.6,45.3,0.00,WSW,237,0.0,0.0,57,0.00,,---,0.00,VWS V13.01,2013-05-26 13:38:00,
2013-05-26 09:43:00,61.7,46.3,0.00,WNW,287,2.7,2.7,57,0.00,,---,0.00,VWS V13.01,2013-05-26 13:43:00,
2013-05-26 09:48:00,62.8,44.4,0.00,East,88,0.0,2.7,51,0.00,,---,0.00,VWS V13.01,2013-05-26 13:48:00,
2013-05-26 09:53:00,64.2,44.1,0.00,SSE,149,0.0,4.0,48,0.00,,---,0.00,VWS V13.01,2013-05-26 13:53:00,
2013-05-26 09:58:00,65.1,44.4,0.00,SSW,200,2.7,4.0,47,0.00,,---,0.00,VWS V13.01,2013-05-26 13:58:00,
2013-05-26 10:03:00,65.7,41.3,0.00,SSE,157,2.7,4.0,41,0.00,,---,0.00,VWS V13.01,2013-05-26 14:03:00,
2013-05-26 10:08:00,65.8,40.9,0.00,North,353,0.0,4.0,40,0.00,,---,0.00,VWS V13.01,2013-05-26 14:08:00,
2013-05-26 10:13:00,66.0,39.0,0.00,SSE,163,2.7,4.0,37,0.00,,---,0.00,VWS V13.01,2013-05-26 14:13:00,
2013-05-26 10:18:00,66.6,40.2,0.00,ESE,105,0.0,4.0,38,0.00,,---,0.00,VWS V13.01,2013-05-26 14:18:00,
2013-05-26 10:23:00,66.9,40.5,0.00,WNW,286,2.2,3.1,38,0.00,,---,0.00,VWS V13.01,2013-05-26 14:23:00,
2013-05-26 10:28:00,67.1,37.8,0.00,ESE,117,0.0,4.0,34,0.00,,---,0.00,VWS V13.01,2013-05-26 14:28:00,
2013-05-26 10:33:00,67.1,38.6,0.00,ENE,61,0.0,4.0,35,0.00,,---,0.00,VWS V13.01,2013-05-26 14:33:00,
2013-05-26 10:38:00,67.5,40.3,0.00,West,266,0.0,4.0,37,0.00,,---,0.00,VWS V13.01,2013-05-26 14:38:00,
2013-05-26 10:43:00,67.1,38.6,0.00,ESE,102,0.0,3.6,35,0.00,,---,0.00,VWS V13.01,2013-05-26 14:43:00,
2013-05-26 10:48:00,67.3,37.2,0.00,ENE,72,0.0,4.0,33,0.00,,---,0.00,VWS V13.01,2013-05-26 14:48:00,
2013-05-26 10:53:00,68.4,39.7,0.00,NW,311,2.7,4.0,35,0.00,,---,0.00,VWS V13.01,2013-05-26 14:53:00,
2013-05-26 10:58:00,68.9,38.6,0.00,North,0,2.7,4.0,33,0.00,,---,0.00,VWS V13.01,2013-05-26 14:58:00,
2013-05-26 11:03:00,69.3,39.0,0.00,WSW,249,0.0,4.9,33,0.00,,---,0.00,VWS V13.01,2013-05-26 15:03:00,
2013-05-26 11:08:00,69.4,39.9,0.00,SSE,165,3.1,4.9,34,0.00,,---,0.00,VWS V13.01,2013-05-26 15:08:00,
2013-05-26 11:13:00,69.6,39.3,0.00,SSW,198,3.1,4.9,33,0.00,,---,0.00,VWS V13.01,2013-05-26 15:13:00,
2013-05-26 11:18:00,69.4,39.9,0.00,North,6,2.7,6.3,34,0.00,,---,0.00,VWS V13.01,2013-05-26 15:18:00,
2013-05-26 11:23:00,69.8,38.6,0.00,North,6,2.7,4.9,32,0.00,,---,0.00,VWS V13.01,2013-05-26 15:23:00,
2013-05-26 11:28:00,70.2,39.7,0.00,SW,224,0.0,4.9,33,0.00,,---,0.00,VWS V13.01,2013-05-26 15:28:00,
2013-05-26 11:33:00,70.5,40.1,0.00,NNW,335,2.7,4.9,33,0.00,,---,0.00,VWS V13.01,2013-05-26 15:33:00,
2013-05-26 11:38:00,70.9,39.6,0.00,NNW,345,3.6,4.9,32,0.00,,---,0.00,VWS V13.01,2013-05-26 15:38:00,
2013-05-26 11:43:00,70.7,37.8,0.00,NNE,27,2.7,2.7,30,0.00,,---,0.00,VWS V13.01,2013-05-26 15:43:00,
2013-05-26 11:48:00,70.5,39.3,0.00,NNE,23,0.0,2.7,32,0.00,,---,0.00,VWS V13.01,2013-05-26 15:48:00,
2013-05-26 11:53:00,71.2,40.7,0.00,WSW,257,2.7,4.5,33,0.00,,---,0.00,VWS V13.01,2013-05-26 15:53:00,
2013-05-26 11:58:00,72.0,40.5,0.00,NE,54,2.7,4.9,32,0.00,,---,0.00,VWS V13.01,2013-05-26 15:58:00,
2013-05-26 12:03:00,72.5,40.2,0.00,WNW,301,0.0,2.7,31,0.00,,---,0.00,VWS V13.01,2013-05-26 16:03:00,
2013-05-26 12:08:00,73.0,40.6,0.00,SSW,204,0.0,4.0,31,0.00,,---,0.00,VWS V13.01,2013-05-26 16:08:00,
2013-05-26 12:13:00,73.0,38.9,0.00,NW,313,0.0,4.9,29,0.00,,---,0.00,VWS V13.01,2013-05-26 16:13:00,
2013-05-26 12:18:00,73.0,37.1,0.00,ENE,64,3.6,4.9,27,0.00,,---,0.00,VWS V13.01,2013-05-26 16:18:00,
2013-05-26 12:23:00,73.0,39.8,0.00,SE,129,2.7,4.0,30,0.00,,---,0.00,VWS V13.01,2013-05-26 16:23:00,
2013-05-26 12:29:00,73.8,36.8,0.00,NW,322,0.0,4.9,26,0.00,,---,0.00,VWS V13.01,2013-05-26 16:29:00,
2013-05-26 12:34:00,73.9,36.9,0.00,ENE,78,2.2,4.9,26,0.00,,---,0.00,VWS V13.01,2013-05-26 16:34:00,
2013-05-26 12:39:00,73.8,37.7,0.00,North,357,2.2,5.4,27,0.00,,---,0.00,VWS V13.01,2013-05-26 16:39:00,
2013-05-26 12:44:00,74.3,38.2,0.00,WNW,303,0.0,2.7,27,0.00,,---,0.00,VWS V13.01,2013-05-26 16:44:00,
2013-05-26 12:49:00,75.0,38.8,0.00,SSE,155,3.6,4.5,27,0.00,,---,0.00,VWS V13.01,2013-05-26 16:49:00,
2013-05-26 12:54:00,75.0,36.8,0.00,NNW,345,3.6,4.5,25,0.00,,---,0.00,VWS V13.01,2013-05-26 16:54:00,
2013-05-26 12:59:00,75.0,37.8,0.00,NW,318,0.0,4.5,26,0.00,,---,0.00,VWS V13.01,2013-05-26 16:59:00,
2013-05-26 13:04:00,75.4,37.2,0.00,North,357,3.1,5.8,25,0.00,,---,0.00,VWS V13.01,2013-05-26 17:04:00,
2013-05-26 13:09:00,75.7,37.5,0.00,North,353,0.0,5.8,25,0.00,,---,0.00,VWS V13.01,2013-05-26 17:09:00,
2013-05-26 13:14:00,75.9,37.6,0.00,West,261,0.0,5.8,25,0.00,,---,0.00,VWS V13.01,2013-05-26 17:14:00,
2013-05-26 13:19:00,76.5,39.1,0.00,NNW,335,0.0,5.8,26,0.00,,---,0.00,VWS V13.01,2013-05-26 17:19:00,
2013-05-26 13:24:00,76.8,38.4,0.00,NW,323,0.0,3.6,25,0.00,,---,0.00,VWS V13.01,2013-05-26 17:24:00,
2013-05-26 13:29:00,76.6,38.2,0.00,North,353,2.2,5.4,25,0.00,,---,0.00,VWS V13.01,2013-05-26 17:29:00,
2013-05-26 13:34:00,76.8,37.3,0.00,NNW,344,3.1,5.4,24,0.00,,---,0.00,VWS V13.01,2013-05-26 17:34:00,
2013-05-26 13:39:00,77.0,37.5,0.00,NW,307,3.6,5.4,24,0.00,,---,0.00,VWS V13.01,2013-05-26 17:39:00,
2013-05-26 13:44:00,77.5,37.9,0.00,NNW,331,0.0,4.0,24,0.00,,---,0.00,VWS V13.01,2013-05-26 17:44:00,
2013-05-26 13:49:00,77.9,38.2,0.00,NNW,331,3.6,4.9,24,0.00,,---,0.00,VWS V13.01,2013-05-26 17:49:00,
2013-05-26 13:54:00,78.6,38.8,0.00,NNW,343,0.0,4.9,24,0.00,,---,0.00,VWS V13.01,2013-05-26 17:54:00,
2013-05-26 13:59:00,78.6,37.8,0.00,NW,313,2.2,6.3,23,0.00,,---,0.00,VWS V13.01,2013-05-26 17:59:00,
2013-05-26 14:04:00,78.3,36.3,0.00,NW,325,2.7,3.1,22,0.00,,---,0.00,VWS V13.01,2013-05-26 18:04:00,
2013-05-26 14:09:00,78.1,38.4,0.00,NNE,18,2.7,4.0,24,0.00,,---,0.00,VWS V13.01,2013-05-26 18:09:00,
2013-05-26 14:14:00,78.4,38.7,0.00,East,92,2.7,4.0,24,0.00,,---,0.00,VWS V13.01,2013-05-26 18:14:00,
2013-05-26 14:19:00,79.0,38.1,0.00,SE,141,3.1,4.9,23,0.00,,---,0.00,VWS V13.01,2013-05-26 18:19:00,
2013-05-26 14:24:00,79.2,37.1,0.00,North,353,2.2,3.6,22,0.00,,---,0.00,VWS V13.01,2013-05-26 18:24:00,
2013-05-26 14:29:00,79.2,38.2,0.00,NW,322,2.7,3.6,23,0.00,,---,0.00,VWS V13.01,2013-05-26 18:29:00,
2013-05-26 14:34:00,79.9,37.7,0.00,North,8,0.0,3.6,22,0.00,,---,0.00,VWS V13.01,2013-05-26 18:34:00,
2013-05-26 14:39:00,79.7,37.5,0.00,ESE,121,3.1,3.6,22,0.00,,---,0.00,VWS V13.01,2013-05-26 18:39:00,
2013-05-26 14:44:00,79.9,37.7,0.00,NE,43,3.1,3.6,22,0.00,,---,0.00,VWS V13.01,2013-05-26 18:44:00,
2013-05-26 14:49:00,80.1,36.7,0.00,ESE,122,2.7,3.6,21,0.00,,---,0.00,VWS V13.01,2013-05-26 18:49:00,
2013-05-26 14:54:00,80.6,37.1,0.00,North,353,2.7,5.4,21,0.00,,---,0.00,VWS V13.01,2013-05-26 18:54:00,
2013-05-26 14:59:00,80.8,37.2,0.00,NW,324,2.7,5.4,21,0.00,,---,0.00,VWS V13.01,2013-05-26 18:59:00,
2013-05-26 15:04:00,81.1,37.5,0.00,NNW,340,0.0,0.0,21,0.00,,---,0.00,VWS V13.01,2013-05-26 19:04:00,
2013-05-26 15:09:00,81.3,37.7,0.00,WSW,245,0.0,4.0,21,0.00,,---,0.00,VWS V13.01,2013-05-26 19:09:00,
2013-05-26 15:14:00,81.7,36.8,0.00,North,357,0.0,4.9,20,0.00,,---,0.00,VWS V13.01,2013-05-26 19:14:00,
2013-05-26 15:19:00,81.9,38.1,0.00,NW,319,3.6,4.9,21,0.00,,---,0.00,VWS V13.01,2013-05-26 19:19:00,
2013-05-26 15:24:00,82.2,37.2,0.00,WNW,284,0.0,4.0,20,0.00,,---,0.00,VWS V13.01,2013-05-26 19:24:00,
2013-05-26 15:29:00,82.2,38.4,0.00,North,5,2.2,4.9,21,0.00,,---,0.00,VWS V13.01,2013-05-26 19:29:00,
2013-05-26 15:34:00,82.0,37.0,0.00,North,0,2.7,5.8,20,0.00,,---,0.00,VWS V13.01,2013-05-26 19:34:00,
2013-05-26 15:39:00,81.7,36.8,0.00,NNE,25,0.0,5.8,20,0.00,,---,0.00,VWS V13.01,2013-05-26 19:39:00,
2013-05-26 15:44:00,81.1,36.3,0.00,North,353,2.2,4.0,20,0.00,,---,0.00,VWS V13.01,2013-05-26 19:44:00,
2013-05-26 15:49:00,81.0,36.2,0.00,NNW,346,0.0,6.3,20,0.00,,---,0.00,VWS V13.01,2013-05-26 19:49:00,
2013-05-26 15:54:00,80.4,37.0,0.00,NNW,339,4.0,6.3,21,0.00,,---,0.00,VWS V13.01,2013-05-26 19:54:00,
2013-05-26 15:59:00,80.4,37.0,0.00,NNW,341,3.1,7.6,21,0.00,,---,0.00,VWS V13.01,2013-05-26 19:59:00,
2013-05-26 16:04:00,81.1,36.3,0.00,NNW,338,4.0,4.0,20,0.00,,---,0.00,VWS V13.01,2013-05-26 20:04:00,
2013-05-26 16:09:00,81.0,36.2,0.00,NNW,337,0.0,4.0,20,0.00,,---,0.00,VWS V13.01,2013-05-26 20:09:00,
2013-05-26 16:14:00,81.1,36.3,0.00,WNW,290,0.0,4.0,20,0.00,,---,0.00,VWS V13.01,2013-05-26 20:14:00,
2013-05-26 16:19:00,81.3,36.5,0.00,SSE,165,3.1,5.4,20,0.00,,---,0.00,VWS V13.01,2013-05-26 20:19:00,
2013-05-26 16:24:00,80.6,37.1,0.00,North,357,2.7,4.0,21,0.00,,---,0.00,VWS V13.01,2013-05-26 20:24:00,
2013-05-26 16:29:00,80.6,37.1,0.00,NW,314,0.0,4.0,21,0.00,,---,0.00,VWS V13.01,2013-05-26 20:29:00,
2013-05-26 16:34:00,80.2,38.0,0.00,SSW,199,0.0,4.0,22,0.00,,---,0.00,VWS V13.01,2013-05-26 20:34:00,
2013-05-26 16:39:00,80.1,36.7,0.00,SW,229,0.0,4.0,21,0.00,,---,0.00,VWS V13.01,2013-05-26 20:39:00,
2013-05-26 16:44:00,79.9,37.7,0.00,WSW,250,0.0,0.0,22,0.00,,---,0.00,VWS V13.01,2013-05-26 20:44:00,
2013-05-26 16:49:00,79.5,37.4,0.00,NW,304,0.0,2.2,22,0.00,,---,0.00,VWS V13.01,2013-05-26 20:49:00,
2013-05-26 16:54:00,78.8,36.8,0.00,South,183,2.7,4.0,22,0.00,,---,0.00,VWS V13.01,2013-05-26 20:54:00,
2013-05-26 16:59:00,78.1,37.3,0.00,North,349,0.0,4.0,23,0.00,,---,0.00,VWS V13.01,2013-05-26 20:59:00,
2013-05-26 17:04:00,77.4,36.7,0.00,WNW,289,0.0,0.0,23,0.00,,---,0.00,VWS V13.01,2013-05-26 21:04:00,
2013-05-26 17:09:00,76.8,36.2,0.00,South,170,0.0,5.4,23,0.00,,---,0.00,VWS V13.01,2013-05-26 21:09:00,
2013-05-26 17:14:00,76.5,36.0,0.00,NW,304,0.0,5.4,23,0.00,,---,0.00,VWS V13.01,2013-05-26 21:14:00,
2013-05-26 17:19:00,76.1,35.7,0.00,SSW,206,0.0,5.4,23,0.00,,---,0.00,VWS V13.01,2013-05-26 21:19:00,
2013-05-26 17:24:00,76.1,35.7,0.00,SSE,166,2.7,5.4,23,0.00,,---,0.00,VWS V13.01,2013-05-26 21:24:00,
2013-05-26 17:29:00,75.7,35.3,0.00,ESE,105,0.0,5.4,23,0.00,,---,0.00,VWS V13.01,2013-05-26 21:29:00,
2013-05-26 17:34:00,75.6,37.3,0.00,NW,307,0.0,5.4,25,0.00,,---,0.00,VWS V13.01,2013-05-26 21:34:00,
2013-05-26 17:39:00,75.4,39.1,0.00,West,272,0.0,5.4,27,0.00,,---,0.00,VWS V13.01,2013-05-26 21:39:00,
2013-05-26 17:44:00,74.8,42.2,0.00,West,260,0.0,0.0,31,0.00,,---,0.00,VWS V13.01,2013-05-26 21:44:00,
2013-05-26 17:49:00,74.5,39.3,0.00,North,0,0.0,0.0,28,0.00,,---,0.00,VWS V13.01,2013-05-26 21:49:00,
2013-05-26 17:54:00,74.7,42.0,0.00,NNW,332,0.0,0.0,31,0.00,,---,0.00,VWS V13.01,2013-05-26 21:54:00,
2013-05-26 18:00:00,74.7,42.9,0.00,West,272,0.0,0.0,32,0.00,,---,0.00,VWS V13.01,2013-05-26 22:00:00,
2013-05-26 19:13:00,73.6,42.7,0.00,WSW,253,0.0,0.0,33,0.00,,---,0.00,VWS V13.01,2013-05-26 23:13:00,
2013-05-26 19:18:00,73.6,41.9,0.00,WSW,253,0.0,0.0,32,0.00,,---,0.00,VWS V13.01,2013-05-26 23:18:00,
2013-05-26 19:23:00,73.0,43.0,0.00,WSW,253,0.0,0.0,34,0.00,,---,0.00,VWS V13.01,2013-05-26 23:23:00,
2013-05-26 19:28:00,72.5,43.3,0.00,WSW,253,0.0,0.0,35,0.00,,---,0.00,VWS V13.01,2013-05-26 23:28:00,
2013-05-26 19:33:00,71.8,43.4,0.00,WSW,253,0.0,0.0,36,0.00,,---,0.00,VWS V13.01,2013-05-26 23:33:00,
2013-05-26 19:38:00,71.2,43.7,0.00,WSW,253,0.0,0.0,37,0.00,,---,0.00,VWS V13.01,2013-05-26 23:38:00,
2013-05-26 19:42:00,70.7,43.9,0.00,WSW,253,0.0,0.0,38,0.00,,---,0.00,VWS V13.01,2013-05-26 23:42:00,
2013-05-26 19:48:00,70.2,43.4,0.00,WSW,253,0.0,0.0,38,0.00,,---,0.00,VWS V13.01,2013-05-26 23:48:00,
2013-05-26 19:53:00,69.8,43.8,0.00,WSW,253,0.0,0.0,39,0.00,,---,0.00,VWS V13.01,2013-05-26 23:53:00,
2013-05-26 19:57:00,69.3,43.9,0.00,WSW,253,0.0,0.0,40,0.00,,---,0.00,VWS V13.01,2013-05-26 23:57:00,
2013-05-26 20:03:00,68.9,44.9,0.00,WSW,253,0.0,0.0,42,0.00,,---,0.00,VWS V13.01,2013-05-27 00:03:00,
2013-05-26 20:08:00,68.7,45.3,0.00,WSW,253,0.0,0.0,43,0.00,,---,0.00,VWS V13.01,2013-05-27 00:08:00,
2013-05-26 20:13:00,68.4,45.6,0.00,WSW,253,0.0,0.0,44,0.00,,---,0.00,VWS V13.01,2013-05-27 00:13:00,
2013-05-26 20:18:00,68.0,45.3,0.00,WSW,253,0.0,0.0,44,0.00,,---,0.00,VWS V13.01,2013-05-27 00:18:00,
2013-05-26 20:23:00,67.6,45.6,0.00,WSW,253,0.0,0.0,45,0.00,,---,0.00,VWS V13.01,2013-05-27 00:23:00,
2013-05-26 20:28:00,67.3,45.8,0.00,WSW,253,0.0,0.0,46,0.00,,---,0.00,VWS V13.01,2013-05-27 00:28:00,
2013-05-26 20:33:00,66.9,45.5,0.00,WSW,253,0.0,0.0,46,0.00,,---,0.00,VWS V13.01,2013-05-27 00:33:00,
2013-05-26 20:38:00,66.6,45.7,0.00,WSW,253,0.0,0.0,47,0.00,,---,0.00,VWS V13.01,2013-05-27 00:38:00,
2013-05-26 20:43:00,66.2,45.4,0.00,WSW,253,0.0,0.0,47,0.00,,---,0.00,VWS V13.01,2013-05-27 00:43:00,
2013-05-26 20:48:00,66.0,45.8,0.00,WSW,253,0.0,0.0,48,0.00,,---,0.00,VWS V13.01,2013-05-27 00:48:00,
2013-05-26 20:53:00,65.7,46.0,0.00,WSW,253,0.0,0.0,49,0.00,,---,0.00,VWS V13.01,2013-05-27 00:53:00,
2013-05-26 20:58:00,65.3,46.2,0.00,WSW,253,0.0,0.0,50,0.00,,---,0.00,VWS V13.01,2013-05-27 00:58:00,
2013-05-26 21:03:00,64.9,46.4,0.00,WSW,253,0.0,0.0,51,0.00,,---,0.00,VWS V13.01,2013-05-27 01:03:00,
2013-05-26 21:08:00,64.8,46.7,0.00,WSW,256,0.0,0.0,52,0.00,,---,0.00,VWS V13.01,2013-05-27 01:08:00,
2013-05-26 21:13:00,64.2,46.8,0.00,West,261,0.0,0.0,53,0.00,,---,0.00,VWS V13.01,2013-05-27 01:13:00,
2013-05-26 21:18:00,63.9,46.9,0.00,West,280,0.0,0.0,54,0.00,,---,0.00,VWS V13.01,2013-05-27 01:18:00,
2013-05-26 21:23:00,63.5,46.6,0.00,West,280,0.0,0.0,54,0.00,,---,0.00,VWS V13.01,2013-05-27 01:23:00,
2013-05-26 21:28:00,63.3,46.9,0.00,West,280,0.0,0.0,55,0.00,,---,0.00,VWS V13.01,2013-05-27 01:28:00,
2013-05-26 21:33:00,63.0,46.6,0.00,West,280,0.0,0.0,55,0.00,,---,0.00,VWS V13.01,2013-05-27 01:33:00,
2013-05-26 21:38:00,62.6,46.7,0.00,West,280,0.0,0.0,56,0.00,,---,0.00,VWS V13.01,2013-05-27 01:38:00,
2013-05-26 21:43:00,62.2,46.8,0.00,West,280,0.0,0.0,57,0.00,,---,0.00,VWS V13.01,2013-05-27 01:43:00,
2013-05-26 21:48:00,62.1,47.1,0.00,West,280,0.0,0.0,58,0.00,,---,0.00,VWS V13.01,2013-05-27 01:48:00,
2013-05-26 21:53:00,61.9,47.0,0.00,West,280,0.0,0.0,58,0.00,,---,0.00,VWS V13.01,2013-05-27 01:53:00,
2013-05-26 21:58:00,61.7,47.2,0.00,West,280,0.0,0.0,59,0.00,,---,0.00,VWS V13.01,2013-05-27 01:58:00,
2013-05-26 22:03:00,61.3,46.9,0.00,West,280,0.0,0.0,59,0.00,,---,0.00,VWS V13.01,2013-05-27 02:03:00,
2013-05-26 22:08:00,61.2,47.2,0.00,West,280,0.0,0.0,60,0.00,,---,0.00,VWS V13.01,2013-05-27 02:08:00,
2013-05-26 22:13:00,60.8,47.3,0.00,West,280,0.0,0.0,61,0.00,,---,0.00,VWS V13.01,2013-05-27 02:13:00,
2013-05-26 22:18:00,60.6,47.1,0.00,West,280,0.0,0.0,61,0.00,,---,0.00,VWS V13.01,2013-05-27 02:18:00,
2013-05-26 22:23:00,60.4,46.9,0.00,West,280,0.0,0.0,61,0.00,,---,0.00,VWS V13.01,2013-05-27 02:23:00,
2013-05-26 22:28:00,60.1,47.0,0.00,West,280,0.0,0.0,62,0.00,,---,0.00,VWS V13.01,2013-05-27 02:28:00,
2013-05-26 22:33:00,60.1,47.5,0.00,West,280,0.0,0.0,63,0.00,,---,0.00,VWS V13.01,2013-05-27 02:33:00,
2013-05-26 22:38:00,59.7,47.1,0.00,West,280,0.0,0.0,63,0.00,,---,0.00,VWS V13.01,2013-05-27 02:38:00,
2013-05-26 22:43:00,59.7,47.5,0.00,West,280,0.0,0.0,64,0.00,,---,0.00,VWS V13.01,2013-05-27 02:43:00,
2013-05-26 22:48:00,59.4,47.2,0.00,West,280,0.0,0.0,64,0.00,,---,0.00,VWS V13.01,2013-05-27 02:48:00,
2013-05-26 22:53:00,59.4,47.2,0.00,West,280,0.0,0.0,64,0.00,,---,0.00,VWS V13.01,2013-05-27 02:53:00,
2013-05-26 22:58:00,59.0,46.8,0.00,West,280,0.0,0.0,64,0.00,,---,0.00,VWS V13.01,2013-05-27 02:58:00,
2013-05-26 23:03:00,58.8,47.5,0.00,West,280,0.0,0.0,66,0.00,,---,0.00,VWS V13.01,2013-05-27 03:03:00,
2013-05-26 23:08:00,58.8,47.5,0.00,West,280,0.0,0.0,66,0.00,,---,0.00,VWS V13.01,2013-05-27 03:08:00,
2013-05-26 23:15:00,58.6,47.3,0.00,West,280,0.0,0.0,66,0.00,,---,0.00,VWS V13.01,2013-05-27 03:15:00,
2013-05-26 23:20:00,58.5,47.6,0.00,West,280,0.0,0.0,67,0.00,,---,0.00,VWS V13.01,2013-05-27 03:20:00,
2013-05-26 23:25:00,58.5,47.6,0.00,West,280,0.0,0.0,67,0.00,,---,0.00,VWS V13.01,2013-05-27 03:25:00,
2013-05-26 23:30:00,58.3,47.4,0.00,West,280,0.0,0.0,67,0.00,,---,0.00,VWS V13.01,2013-05-27 03:30:00,
2013-05-26 23:35:00,58.1,47.2,0.00,West,280,0.0,0.0,67,0.00,,---,0.00,VWS V13.01,2013-05-27 03:35:00,
2013-05-26 23:40:00,57.7,47.3,0.00,West,280,0.0,0.0,68,0.00,,---,0.00,VWS V13.01,2013-05-27 03:40:00,
2013-05-26 23:45:00,57.6,47.5,0.00,West,280,0.0,0.0,69,0.00,,---,0.00,VWS V13.01,2013-05-27 03:45:00,
2013-05-26 23:50:00,57.6,47.5,0.00,West,280,0.0,0.0,69,0.00,,---,0.00,VWS V13.01,2013-05-27 03:50:00,
2013-05-26 23:55:00,57.6,47.5,0.00,West,280,0.0,0.0,69,0.00,,---,0.00,VWS V13.01,2013-05-27 03:55:00,